Simultaneous Nadir Overpasses (SNOs) Predictions

Prediction of SNOs between NPP and TERRA Satellite Orbit:

Table of predicted SNOs for the next 14.0 days since TLE Epoch: 1/26/2015
Index Date (NPP) Time (NPP) Lat,Lon (NPP) SZA (NPP ) Date (TERRA) Time (TERRA) Lat,Lon (TERRA) SZA (TERRA ) Distance(km) Time Diff (sec)
1 01/26/2015 21:58:56 70.00,-151.44 88.57 01/26/2015 22:00:03 69.92,-149.37 88.45 79.60 67
2 01/26/2015 22:49:22 -69.08, 17.20 92.39 01/26/2015 22:49:46 -69.10, 17.16 92.38 2.55 24
3 01/26/2015 23:40:07 69.00,-175.38 87.52 01/26/2015 23:39:13 68.99,-175.34 87.51 2.25 54
4 01/29/2015 14:15:32 69.29, -34.64 87.14 01/29/2015 14:16:43 69.28, -34.36 87.11 11.05 71
5 01/29/2015 15:06:11 -69.07, 133.00 93.11 01/29/2015 15:06:15 -69.06, 132.99 93.11 0.49 4
6 01/29/2015 15:56:55 68.93, -59.51 86.75 01/29/2015 15:55:42 68.95, -59.51 86.77 1.35 73
7 02/01/2015 06:32:18 69.18, 81.30 86.29 02/01/2015 06:33:12 69.16, 81.37 86.26 3.45 54
8 02/01/2015 07:22:58 -69.00,-111.13 93.91 02/01/2015 07:22:43 -69.01,-111.19 93.90 2.65 15
9 02/01/2015 08:13:30 68.23, 57.19 85.29 02/01/2015 08:12:21 68.28, 55.55 85.38 68.14 69
10 02/03/2015 22:49:05 69.07,-162.77 85.41 02/03/2015 22:49:41 69.09,-162.84 85.42 3.43 36
11 02/03/2015 23:39:47 -69.00, 4.66 94.69 02/03/2015 23:39:11 -68.99, 4.67 94.69 0.52 36
12 02/06/2015 14:15:23 -69.88, 144.55 94.55 02/06/2015 14:16:31 -69.79, 146.33 94.70 69.07 68
13 02/06/2015 15:05:54 69.08, -46.99
